Regional Weather Roundup
Issued by NWS

Home | Current Version | Previous Version | Text Only | Print | Product List | Glossary On
Versions: 1 2 3 4 5 6 7 8 9 10 11 12 13 14 15 16 17 18 19 20 21 22 23 24 25 26 27 28 29 30 31 32 33 34 35 36 37 38 39 40 41 42 43 44 45 46 47 48 49 50
000
ASUS45 KTFX 280919
RWRMT
MONTANA HOURLY WEATHER ROUNDUP
NATIONAL WEATHER SERVICE GREAT FALLS MT
219 AM MST WED JAN 28 2015

NOTE: "FAIR" INDICATES FEW OR NO CLOUDS BELOW 12000 FEET WITH NO
SIGNIFICANT WEATHER AND/OR OBSTRUCTIONS TO VISIBILITY.

* THESE STATIONS ARE NOT UNDER NWS QUALITY CONTROL. THEY DO NOT
   REPORT WEATHER SUCH AS PRECIPITATION OR FOG.

MTZ001>007-043-281000-
WEST OF THE DIVIDE
CITY           SKY/WX    TMP DP  RH WIND       PRES   REMARKS
KALISPELL      FOG       16  12  84 CALM      30.07R VSB M1/4
MISSOULA       FOG       28  27  96 W5        30.10S WCI  22
BUTTE          CLOUDY    30  28  92 CALM      30.07R
MULLAN PASS    MOCLDY    28  28 100 NW3       30.09R
* ANACONDA     MOCLDY    37  28  70 SW5        N/A   WCI  33
* ESSEX        N/A       29  25  85 W1         N/A
* EUREKA APT   CLEAR     32  27  82 S3        30.06R
* HAMILTON APT CLOUDY    36  30  79 SE3       30.09R
* LIBBY APT    CLEAR     27  25  92 CALM      30.12R VSB M1/4
* LINCOLN      N/A       42  26  53 SW4G11     N/A
* LOOKOUT PASS N/A       33  29  85 N/A        N/A
* POLSON       N/A       37  26  64 S1         N/A
* RONAN APT    PTCLDY    36  36 100 S5         N/A   WCI  32
* SEELEY LAKE  N/A       21  19  92 NE1G6      N/A
* THOMP F APT  PTCLDY    32  31  96 N/A        N/A
$$

MTZ008-052>055-281000-
SOUTHWEST MONTANA
CITY           SKY/WX    TMP DP  RH WIND       PRES   REMARKS
BOZEMAN        CLOUDY    37  30  76 CALM      30.03R
DILLON         CLOUDY    39  34  82 SW14      30.05R WCI  31
* W YELLOWSTON CLOUDY    32  31  96 S1         N/A
* THREE FORKS  CLOUDY    45  45 100 SW9        N/A
* BOULDER HILL N/A       42  21  43 N1         N/A
* MONIDA PASS  N/A       31  31 100 SE8        N/A   WCI  24
* RAYNOLDS PAS N/A       31  16  54 S11        N/A   WCI  22
* WHITEHALL    N/A       44  33  65 SW7G12     N/A
* WISE RIVER   N/A       31  26  82 W1         N/A
$$

MTZ009>010-012-014-046-048-049-054-281000-
EAST SLOPES AND CENTRAL MONTANA
CITY           SKY/WX    TMP DP  RH WIND       PRES   REMARKS
CUT BANK       PTCLDY    43  25  49 W22       29.92R
GREAT FALLS    CLOUDY    48  28  46 SW16      29.91S
HELENA         CLOUDY    34  30  85 N8        30.01R WCI  27
MALMSTROM AFB  CLOUDY    48  30  50 SW14      29.91S
* CONRAD       CLOUDY    41  28  60 SW9        N/A
* DEARBORN     N/A       54  23  30 S16G22     N/A
* EAST GLACIER N/A       39  21  48 W8         N/A   WCI  33
* MONARCH      N/A       45  20  37 W13G20     N/A
* PENDROY      N/A       43  22  43 NW18G27    N/A
* ROGERS PASS  N/A       39  24  55 SE11G20    N/A   WCI  32
* SWEET GRASS  N/A       40  24  53 W19        N/A   WCI  31
* WHITE SULPH  N/A       38  29  70 E3         N/A
$$

MTZ011-013-016-021-035-040-045-047-050-051-281000-
NORTH CENTRAL MONTANA
CITY           SKY/WX    TMP DP  RH WIND       PRES   REMARKS
HAVRE          CLOUDY    43  30  60 SW14      29.84R
LEWISTOWN      CLOUDY    43  28  56 SW10      29.90R
* N BAR RANCH  MOCLDY    52  25  35 NW18G30   29.86R
* CHINOOK      CLOUDY    41  28  60 W7        29.84R
* CHESTER      N/A       40  28  62 W9G15      N/A   WCI  34
* DENTON       N/A       51  28  41 W17G22     N/A
* GEYSER       N/A       48  24  39 W17G26     N/A
* JUDITH GAP   N/A       46  26  46 S3         N/A
* LOMA         N/A       46  29  52 N2         N/A
$$

MTZ017>020-022>027-061-062-281000-
NORTHEAST MONTANA
CITY           SKY/WX    TMP DP  RH WIND       PRES   REMARKS
GLASGOW        MOCLDY    34  30  85 W6        29.76S WCI  29
GLENDIVE       CLOUDY    34  30  85 S5        29.77S WCI  29
JORDAN         PTCLDY    36  30  79 W10       29.80S WCI  29
SIDNEY         CLOUDY    34  30  85 CALM      29.77S
WOLF POINT     CLOUDY    36  30  79 W6        29.76S WCI  31
* BEAVER HILL  N/A       42  32  68 S12        N/A
* CIRCLE       N/A       40  34  79 W4         N/A
* LINDSAY DVD  N/A       46  30  54 NW10       N/A
* NAVAJO       N/A       37  31  79 W6         N/A   WCI  32
* PLENTYWOOD A CLOUDY    36  34  92 CALM      29.72F
* POPLAR APT   CLOUDY    36  32  85 N/A       29.75S
* SACO         N/A       31  30  96 N/A        N/A
* SCOBEY APT   CLOUDY    34  27  76 N/A        N/A
$$

MTZ028>042-056>058-281000-
SOUTHCENTRAL AND SOUTHEAST MONTANA
CITY           SKY/WX    TMP DP  RH WIND       PRES   REMARKS
BAKER          CLOUDY    32  28  85 CALM      29.78S
BILLINGS       CLOUDY    48  30  50 SW14      29.90R
LIVINGSTON     CLOUDY    46  36  68 SW28G36   29.98S
MILES CITY     CLOUDY    36  30  79 W7        29.80R WCI  30
* BIG TIMBER A CLOUDY    46  34  63 SW24G31   29.94R
* FORSYTH APT  MOCLDY    43  30  60 W6        29.83R
* LAUREL APT   CLOUDY    43  27  53 N/A        N/A
* ROUNDUP APT  CLOUDY    48  28  46 N/A        N/A
* ALZADA       N/A       38  30  73 NW4        N/A
* HYSHAM       N/A       45  26  47 W6         N/A
* REED POINT   N/A       55  31  40 W6G13      N/A
* ROSCOE HILL  N/A       49  19  30 SW9G19     N/A
$$

REGIONAL REPORTS...DAKOTAS
CITY           SKY/WX    TMP DP  RH WIND       PRES   REMARKS
WILLISTON      CLOUDY    30  28  92 N3        29.74S
DICKINSON      CLEAR     30  27  89 SW5       29.72F WCI  25
BEACH          CLEAR     39  32  76 SW7       29.76F WCI  34
CROSBY         FOG       30  30 100 NE5       29.74F VSB 2 1/2 WCI  25
TIOGA          CLEAR     28  28 100 SE3       29.75F
WATFORD CITY   CLEAR     32  32 100 CALM      29.72S
BISMARCK       CLEAR     28  28 100 CALM      29.75S
GRAND FORKS    FOG       34  32  92 S10       29.84F WCI  26
FARGO          CLOUDY    36  30  79 SE20G26   29.84F WCI  25
BUFFALO SD     CLOUDY    43  30  60 W7        29.70F
RAPID CITY     CLOUDY    43  27  53 NW6       29.77S
$$

REGIONAL REPORTS...WYOMING/IDAHO/WASHINGTON
CITY           SKY/WX    TMP DP  RH WIND       PRES   REMARKS
GILLETTE       PTCLDY    43  28  56 W6        29.88R
SHERIDAN       CLOUDY    46  28  50 VRB6      29.87S
CODY           CLOUDY    48  30  50 NW12G17   29.97R
YELLOWSTONE LA CLOUDY    30  28  92 CALM      30.12F
SALMON         CLOUDY   N/A N/A N/A CALM      30.16S
MULLAN PASS    MOCLDY    28  28 100 NW3       30.09S
SAND POINT     HAZE     N/A N/A N/A CALM      30.16R
SPOKANE        FOG       34  34 100 S3        30.17R VSB 1/2
$$

REGIONAL REPORTS...ALBERTA
CITY           SKY/WX    TMP DP  RH WIND       PRES   REMARKS
CALGARY        N/A       32  28  85 N13       29.95R WCI  22
LETHBRIDGE     CLEAR     37  25  62 W16       29.92R WCI  28
MEDICINE HAT   MOCLDY    32  30  92 NW2       29.89R
EDMONTON       FOG       30  28  92 W9        29.96R VSB M1/4 WCI  22
WATERTON GATE  N/A       41  19  41 W12        N/A
CARDSTON       N/A       41  25  53 W10        N/A
MILK RIVER     N/A       36  27  70 W13        N/A   WCI  27
$$

REGIONAL REPORTS...SASKATCHEWAN
CITY           SKY/WX    TMP DP  RH WIND       PRES   REMARKS
SWIFT CURRENT  FOG       27  27 100 NW7       29.75R VSB M1/4 WCI  19
REGINA         FOG       28  28 100 E10       29.78R WCI  19
VAL MARIE      N/A       36  34  92 NE1        N/A
ASSINIBOIA     N/A       27  25  92 N1         N/A
CORONACH       N/A       36  32  85 W2         N/A

$$



USA.gov is the U.S. government's official web portal to all federal, state and local government web resources and services.